Find Starlink 32224

NORAD ID: 60941 Int'l Des: 2024-155 Owner: SPXS Country: US Constellation: starlink operational
LEOCIRCULAR

リアルタイム位置

3D地球を読み込み中...

Starlink 32224について

説明を読み込み中...

次回通過

Passes for default location (London). Set your location on the main map for personalized predictions.

高度履歴

Loading altitude history...

軌道要素

1 60941U 24155T 26127.62647919 .00002114 00000-0 83518-4 0 9996
2 60941 53.1602 215.9657 0001302 61.4655 298.6477 15.30187475 95375
Epoch: May 7, 2026 • Age: 19 hours

現在のステータス

高度 480.3 km
速度 7.63 km/s
衛星直下点 49.37°N, 49.09°W
打ち上げ日 Aug 31, 2024
運用期間 1.6 years
タイプ internet

技術仕様

分類 Payload
質量 730.00 kg
乾燥質量 700.00 kg
総質量 730.00 kg
長さ 0.30 m
直径 4.10 m
スパン 29.00 m
形状 Box + pan
製造者 SPXS
バスタイプ Starlink V2M
フェーズステータス In Orbit
所有者/国 SPXS/US

Most Searched